STARLINK-36951, 67990

Orbit data source: Space-Track

STARLINK-36951, 67990 is a payload satellite owned by SpaceX/Seattle (US) in LEO that was launched on Fri, 27 Feb 2026 UTC via an FALCON 9 launch vehicle from the Air Force Eastern Test Range (AFETR). Payload-class satellites include a variety of spacecraft equipped with specific instruments for various scientific and technological missions. These include communications satellites like Starlink; space stations such as the ISS; scientific satellites like the Hubble; Earth observation satellites from companies like Planet Labs, Umbra, and HawkEye 360; GPS; miniature CubeSats for education and research; and military/defense satellites.

Loading next visibility...
Identifier
67990, 2026-039E
Orbit
LEO
Country
Flag of USUS
Related business
Manufacturer
SpaceX/Seattle
Mission
Operational Commercial Communications
Bus & Motor
STARLINK V2MO, Unknown motor
Mass
575 kg wet, ~530 kg dry
Launch date (UTC)
2026-02-27 (2 months ago)
Launch vehicle
FALCON 9
Launch site
Air Force Eastern Test Range (AFETR)
Object type
Payload
Rocket body
Debris
Shape & HBR
Box + 2 Pan, 17.7 m
Radar Cross Section
36.964 m²

Expand to show TLE details & history
Last TLE update: 15 hours ago

TLE from 15 hours ago
0 STARLINK-36951
1 67990U 26039E   26119.05237938  .00017681  00000-0  65034-3 0  9991
2 67990  42.9995 124.6920 0000817 274.9927  85.0832 15.27588086  9400
Epoch: 2026-04-29T01:15Z
TLE epoch observation values (Epoch: 2026-04-29T01:15:25.578Z)
Latitude
0.00003°
Longitude
-111.18342°
Altitude
482.752 km
Speed
7.626 km/s
True Right ascension
08h 18m 46s
True Declination
0° 00' 00"
Sunlit
Object was in daylight at epoch
Visualization orbit readout
Latitude
Unknown
Longitude
Unknown
Altitude
Unknown
Speed
Unknown
Apparent Right ascension
Unknown
Apparent Declination
Unknown
Sunlit
N/A
Visualization observer readout
Local Sidereal Time
00:03:19
Azimuth
Unknown
Elevation
Unknown
Doppler factor
Unknown
Orbital elements
Apogee altitude
485.531 km
Perigee altitude
484.409 km
Semi-major axis
6,863.107 km
Eccentricity
0.00008
Inclination
42.9995°
RAAN
124.692°
Arg. of periapsis
274.9927°
True anomaly
85.09253°
Mean anomaly
85.0832°
Eccentric anomaly
85.08786°
Mean motion
3.81735 °/min
Orbital period
94.31 mins
BSTAR
0.00065034
Loading maneuver chart data...
Computing Atmospheric mass density...
Loading historical data...
Loading historical data...
Loading historical data...
Loading historical data...
Loading historical data...
Loading historical data...
Loading historical data...

Documentation

Showing up to 5 results
|